Powrót do katalogu

TOMORROW-S4

AktywnyŁącznośćVLEO
NORAD 62386·PAYLOAD·🇺🇸 United States

Wystrzelony Dec 21, 2024 z Vandenberg Space Force Base

Loading…

Następne Przeloty (najbliższe 24 godziny)

TLE

ŚwieżeSource: Space-Track

Epoka: Sep 14, 2026, 03:32 UTC

1 62386U 24247K   26257.14788124  .00005488  00000-0  19458-3 0  9996
2 62386  44.9813 165.7552 0004489 198.2329 161.8394 15.30161196 96578

Śledź TOMORROW-S4 w czasie rzeczywistym z AllMySat

Download on the App Store